This is the latest recevied weather packets stored in our database for station/object N8QF. If no packets are shown the sender has not sent any weather packets the latest 10 day(s).
| Time | Temp. | Humidity | Pressure | Rain* | Wind** | Luminosity | Snow |
|---|---|---|---|---|---|---|---|
| 1777926274 | 21.67° C | 49% | 1006.8 hPa | 0 mm | - | - | - |
| 1777925974 | 21.67° C | 52% | 1006.8 hPa | 0 mm | - | - | - |
| 1777925674 | 21.11° C | 57% | 1006.9 hPa | 0 mm | - | - | - |
| 1777925374 | 21.11° C | 58% | 1007 hPa | 0 mm | - | - | - |
| 1777925073 | 20.56° C | 57% | 1006.9 hPa | 0 mm | - | - | - |
| 1777924773 | 20° C | 59% | 1006.9 hPa | 0 mm | - | - | - |
| 1777924473 | 20° C | 61% | 1007 hPa | 0 mm | - | - | - |
| 1777924173 | 19.44° C | 63% | 1007.1 hPa | 0 mm | - | - | - |
| 1777923872 | 19.44° C | 65% | 1007.3 hPa | 0 mm | - | - | - |
| 1777923569 | 18.89° C | 63% | 1007.3 hPa | 0 mm | - | - | - |
| 1777923269 | 18.89° C | 65% | 1007.3 hPa | 0 mm | - | - | - |
| 1777922968 | 18.89° C | 63% | 1007.1 hPa | 0 mm | - | - | - |
| 1777922668 | 18.89° C | 64% | 1007.8 hPa | 0 mm | - | - | - |
| 1777922367 | 18.89° C | 64% | 1007.9 hPa | 0 mm | - | - | - |
| 1777922067 | 18.89° C | 60% | 1007.6 hPa | 0 mm | - | - | - |
| 1777921766 | 19.44° C | 58% | 1007.6 hPa | 0 mm | - | - | - |
| 1777921466 | 19.44° C | 56% | 1008.5 hPa | 0 mm | - | - | - |
| 1777921166 | 19.44° C | 55% | 1008.6 hPa | 0 mm | - | - | - |
| 1777920863 | 19.44° C | 55% | 1008.1 hPa | 0 mm | - | - | - |
| 1777920563 | 20° C | 53% | 1008.2 hPa | 0 mm | - | - | - |
| 1777920262 | 20° C | 53% | 1008 hPa | 0 mm | - | - | - |
| 1777919962 | 20.56° C | 54% | 1008 hPa | 0 mm | - | - | - |
| 1777919662 | 20.56° C | 54% | 1007.9 hPa | 0 mm | - | - | - |
| 1777919362 | 20.56° C | 57% | 1007.6 hPa | 0 mm | - | - | - |
| 1777919061 | 20° C | 56% | 1007.5 hPa | 0 mm | - | - | - |
* Rain since midnight (hover to see other rain measurements)
** Current wind speed in m/s (hover to see current wind gust speed)